Probability
54 57 62 67 72 72 71 71 72 73 70 65 60 53 45 39 36 37 34 29 28 31 34 38 44 47 50 51 47 43 38 32 27 19 14 13 13 12 10 9 9 7 6
55 57 59 62 67 69 68 69 69 71 69 65 59 52 43 36 32 30 27 25 25 27 30 35 40 44 47 48 44 38 31 26 22 16 10 7 8 6 5 5 5 4 4
55 54 51 52 57 62 64 64 64 64 64 61 56 49 40 32 25 21 18 16 17 18 20 24 29 34 38 39 36 30 24 19 15 11 5 3 4 3 1 1 1 1 1
46 45 42 40 43 51 56 57 56 55 54 53 50 44 37 28 21 15 12 9 8 8 8 10 13 18 22 23 23 20 17 13 9 5 2 2 2 1 0 0 0 0 0
31 32 31 30 33 38 43 45 45 45 44 42 41 37 31 23 16 10 7 5 3 1 1 1 3 5 6 7 9 9 9 7 4 1 1 0 0 0 0 0 0 0 0
18 19 20 21 23 26 29 31 32 33 34 33 31 27 22 17 11 5 2 1 0 0 0 0 0 0 0 0 1 2 2 2 1 0 0 0 0 0 0 0 0 0 0
11 9 8 10 12 13 15 18 19 20 21 21 19 16 13 10 6 2 0 0 0 0 0 0 0 0 0 0 0 0 0 0 0 0 0 0 0 0 0 0 0 0 0
5 4 2 2 3 4 5 6 7 8 8 8 8 7 5 4 2 1 0 0 0 0 0 0 0 0 0 0 0 0 0 0 0 0 0 0 0 0 0 0 0 0 0
2 2 1 0 0 0 1 1 1 1 1 1 1 2 1 1 0 0 0 0 0 0 0 0 0 0 0 0 0 0 0 0 0 0 0 0 0 0 0 0 0 0 0
1 1 0 0 0 0 0 0 0 0 0 0 0 0 0 0 0 0 0 0 0 0 0 0 0 0 0 0 0 0 0 0 0 0 0 0 0 0 0 0 0 0 0
0 0 0 0 0 0 0 0 0 0 0 0 0 0 0 0 0 0 0 0 0 0 0 0 0 0 0 0 0 0 0 0 0 0 0 0 0 0 0 0 0 0 0
0 0 0 0 0 0 0 0 0 0 0 0 0 0 0 0 0 0 0 0 0 0 0 0 0 0 0 0 0 0 0 0 0 0 0 0 0 0 0 0 0 0 0
0 0 0 0 0 0 0 0 0 0 0 0 0 0 0 0 0 0 0 0 0 0 0 0 0 0 0 0 0 0 0 0 0 0 0 0 0 0 0 0 0 0 0
0 0 0 0 0 0 0 0 0 0 0 0 0 0 0 0 0 0 0 0 0 0 0 0 0 0 0 0 0 0 0 0 0 0 0 0 0 0 0 0 0 0 0
0 0 0 0 0 0 0 0 0 0 0 0 0 0 0 0 0 0 0 0 0 0 0 0 0 0 0 0 0 0 0 0 0 0 0 0 0 0 0 0 0 0 0
0 0 0 0 0 0 0 0 0 0 0 0 0 0 0 0 0 0 0 0 0 0 0 0 0 0 0 0 0 0 0 0 0 0 0 0 0 0 0 0 0 0 0
0 0 0 0 0 0 0 0 0 0 0 0 0 0 0 0 0 0 0 0 0 0 0 0 0 0 0 0 0 0 0 0 0 0 0 0 0 0 0 0 0 0 0
0 0 0 0 0 0 0 0 0 0 0 0 0 0 0 0 0 0 0 0 0 0 0 0 0 0 0 0 0 0 0 0 0 0 0 0 0 0 0 0 0 0 0
0 0 0 0 0 0 0 0 0 0 0 0 0 0 0 0 0 0 0 0 0 0 0 0 0 0 0 0 0 0 0 0 0 0 0 0 0 0 0 0 0 0 0
0 0 0 0 0 0 0 0 0 0 0 0 0 0 0 0 0 0 0 0 0 0 0 0 0 0 0 0 0 0 0 0 0 0 0 0 0 0 0 0 0 0 0
0 0 0 0 0 0 0 0 0 0 0 0 0 0 0 0 0 0 0 0 0 0 0 0 0 0 0 0 0 0 0 0 0 0 0 0 0 0 0 0 0 0 0
0 0 0 0 0 0 0 0 0 0 0 0 0 0 0 0 0 0 0 0 0 0 0 0 0 0 0 0 0 0 0 0 0 0 0 0 0 0 0 0 0 0 0
0 0 0 0 0 0 0 0 0 0 0 0 0 0 0 0 0 0 0 0 0 0 0 0 0 0 0 0 0 0 0 0 0 0 0 0 0 0 0 0 0 0 0
0 0 0 0 0 0 0 0 0 0 0 0 0 0 0 0 0 0 0 0 0 0 0 0 0 0 0 0 0 0 0 0 0 0 0 0 0 0 0 0 0 0 0
0 0 0 0 0 0 0 0 0 0 0 0 0 0 0 0 0 0 0 0 0 0 0 0 0 0 0 0 0 0 0 0 0 0 0 0 0 0 0 0 0 0 0
0 0 0 0 0 0 0 0 0 0 0 0 0 0 0 0 0 0 0 0 0 0 0 0 0 0 0 0 0 0 0 0 0 0 0 0 0 0 0 0 0 0 0
Wind_Speed
9 10 9 8 8 6 5 5 5 4 3 3 4 3 3 2 3 3 2 1 2 2 2 2 2 2 2 3 4 3 4 3 2 2 3 3 4 5 4 4 5 6 6
10 10 10 10 9 6 4 4 3 4 3 2 3 3 3 3 3 3 4 4 2 1 2 1 1 1 2 2 3 3 3 3 2 2 3 3 2 3 5 4 4 5 5
9 10 11 11 9 8 6 3 3 3 3 2 3 4 4 4 3 4 4 6 6 5 5 4 3 2 2 3 2 2 3 3 2 2 1 2 3 3 3 5 5 4 4
10 11 11 12 12 10 8 8 6 5 4 3 3 5 4 4 5 5 6 8 9 9 8 7 7 6 5 5 4 3 2 3 3 2 3 3 3 4 3 3 3 5 5
10 11 11 11 11 10 9 8 8 7 7 6 5 5 6 6 6 7 9 9 9 10 10 9 8 8 6 6 7 6 5 4 3 3 2 3 3 3 3 3 3 2 3
10 10 10 11 11 11 10 9 9 9 8 7 7 8 9 9 10 10 9 8 7 8 10 10 9 8 7 8 8 8 9 7 7 5 4 3 3 2 2 3 3 3 2
9 10 11 12 12 12 12 11 12 11 10 10 10 10 10 11 11 10 9 8 7 7 8 8 8 8 8 8 9 9 9 9 8 7 5 5 4 2 2 3 3 4 3
10 11 11 11 11 12 12 12 12 12 11 12 12 11 11 9 9 11 9 9 7 7 8 9 9 9 9 9 8 8 7 7 8 8 5 4 4 3 2 2 2 3 3
11 11 11 11 11 11 11 11 12 12 12 12 13 13 13 12 12 11 10 9 8 8 9 9 9 8 8 7 7 7 7 6 6 6 5 3 3 3 3 3 3 2 2
11 12 11 11 11 11 11 11 12 12 12 12 11 11 12 12 11 11 12 11 10 8 8 8 8 8 7 6 6 6 6 7 7 6 7 6 4 3 3 4 4 4 3
11 11 10 11 11 11 11 11 11 12 11 12 12 12 12 12 11 11 10 9 8 7 7 7 7 7 7 6 5 6 6 7 6 6 6 6 6 5 4 4 4 5 4
11 11 11 11 11 11 11 11 10 11 11 11 12 12 11 11 11 11 9 8 7 7 6 6 6 7 6 5 5 6 6 6 6 6 6 6 5 6 5 4 4 3 3
11 11 11 11 11 10 10 11 10 11 10 11 11 11 11 10 10 9 8 7 7 6 6 5 5 6 5 5 5 5 6 6 6 6 6 6 6 6 5 5 5 4 4
11 11 11 11 10 10 10 11 11 10 10 11 11 11 10 9 8 8 7 6 6 5 5 5 5 6 7 7 6 6 6 6 6 6 7 7 7 6 6 5 6 5 4
11 11 11 10 10 10 10 11 10 9 10 10 11 10 8 7 7 6 6 5 5 6 5 6 7 8 9 9 9 4 6 5 5 5 6 6 6 5 4 5 4 5 4
12 12 12 11 10 10 10 10 10 8 8 10 10 9 8 7 6 6 5 5 5 6 7 8 9 9 8 10 13 10 5 4 4 3 3 5 3 2 1 1 2 3 3
12 12 11 10 9 9 9 9 9 8 8 9 9 8 7 7 6 7 6 6 6 6 7 7 8 8 8 11 12 12 6 3 4 4 4 5 8 7 6 4 4 5 5
13 12 11 10 9 8 8 8 8 8 8 8 8 7 7 7 6 6 6 5 4 5 5 6 7 6 7 10 11 12 4 2 3 4 5 6 7 7 7 7 4 2 2
12 11 11 10 8 8 8 8 7 7 8 8 7 7 7 7 6 6 5 4 4 4 5 6 6 6 5 8 9 10 4 1 3 5 7 6 6 7 9 6 5 5 5
12 11 11 10 8 7 7 7 8 7 8 8 7 7 6 6 6 5 4 4 3 4 5 6 6 6 5 6 8 10 3 2 3 5 6 8 6 6 8 5 5 5 5
13 11 10 9 8 7 7 8 8 7 8 8 7 6 5 5 5 4 3 3 3 4 5 6 6 5 5 4 6 9 5 5 3 3 4 3 3 4 5 5 3 3 5
13 11 9 8 7 7 7 8 7 7 7 7 6 5 4 5 6 4 3 3 3 4 4 4 5 4 4 3 3 5 6 6 4 4 3 2 1 4 6 5 6 9 8
12 10 10 9 7 6 7 9 7 7 7 7 6 5 6 5 4 3 3 2 2 2 3 3 4 4 4 2 1 3 5 6 4 3 3 4 5 6 6 7 9 8 5
11 9 10 9 8 7 9 8 8 7 7 7 6 5 4 4 4 3 3 4 4 3 3 3 3 4 4 4 4 3 2 2 2 4 5 7 9 8 8 7 5 5 2
9 9 9 9 10 9 9 8 7 7 7 6 5 4 5 6 6 7 6 7 7 6 5 5 5 4 5 3 3 4 5 5 5 6 5 3 2 2 1 2 1 2 2
10 9 9 9 10 10 9 8 7 6 5 5 4 4 4 4 5 6 6 10 7 8 10 9 6 5 4 1 3 5 7 7 7 6 4 2 3 3 3 3 3 3 3
Wind_Direction
54 56 50 50 53 56 88 112 139 146 145 153 160 165 165 145 112 102 96 171 206 191 195 217 200 190 186 171 160 154 149 153 140 122 99 77 75 85 77 71 75 74 71
59 49 44 45 46 43 62 89 111 133 146 154 155 149 132 109 97 79 59 36 44 93 169 162 149 153 151 145 159 158 152 143 142 140 139 135 112 75 75 79 76 74 75
60 51 43 38 36 35 40 58 74 84 94 121 130 125 110 100 87 73 61 39 40 48 54 63 72 79 96 90 78 125 151 150 120 66 116 146 145 118 71 65 69 70 74
62 52 46 38 33 27 32 41 52 60 61 75 105 121 119 108 85 80 70 56 47 49 52 56 59 63 68 74 59 55 79 117 133 96 58 68 91 130 124 85 69 67 65
66 59 51 44 37 30 36 43 46 50 56 65 85 98 96 94 90 83 74 64 51 47 51 56 59 60 63 67 65 57 59 67 88 99 97 82 70 72 121 131 128 100 79
78 70 61 53 43 35 38 46 52 53 52 66 75 88 99 101 96 88 82 70 60 52 51 57 59 60 62 63 66 66 63 61 60 60 59 73 78 74 92 121 138 124 105
90 75 63 56 48 40 39 45 55 53 51 59 65 73 88 95 96 95 88 83 74 63 56 60 62 61 62 65 68 69 67 64 64 59 55 55 55 61 73 107 132 133 143
89 77 68 62 56 50 45 49 57 58 59 64 67 69 75 80 80 82 87 83 79 74 70 69 68 67 66 70 70 72 71 71 70 64 56 57 44 41 51 78 107 137 141
91 82 74 67 62 57 53 56 63 65 65 69 74 75 77 80 82 84 83 82 80 81 77 76 74 71 68 70 72 71 68 67 68 62 52 55 48 39 35 38 46 61 132
97 89 81 76 70 67 64 63 66 70 70 72 75 80 80 82 84 84 83 83 81 81 81 79 78 75 70 70 77 79 77 77 73 65 50 41 29 33 34 34 31 25 61
101 95 89 84 80 76 73 71 71 73 73 76 78 79 80 81 82 83 84 86 89 89 88 85 83 81 76 73 77 83 77 74 72 75 74 62 38 27 29 33 40 36 41
99 94 90 87 82 79 78 76 76 78 78 81 83 83 84 85 85 84 82 81 80 79 79 81 84 85 82 73 73 79 77 76 72 66 62 59 56 45 32 28 49 50 39
102 97 92 89 86 84 84 83 82 83 85 86 86 85 84 85 86 86 86 84 81 78 76 78 82 87 89 84 80 79 77 75 71 66 64 59 51 41 29 32 29 26 34
108 104 99 95 94 92 92 92 89 89 89 88 87 84 83 82 83 82 81 83 84 81 78 75 71 68 60 52 53 74 74 74 74 70 66 58 52 35 7 35 28 22 7
114 109 105 103 102 100 97 96 94 93 95 94 91 89 88 87 86 85 82 81 86 87 79 76 68 66 57 37 25 36 80 80 83 85 90 87 83 62 30 39 21 15 6
119 116 113 112 110 109 107 105 104 105 104 101 100 100 98 96 96 95 90 84 78 75 73 69 65 60 53 30 29 26 35 69 78 84 99 126 120 144 214 321 339 359 11
126 123 118 116 114 114 114 115 114 113 109 108 109 107 104 100 100 103 97 89 84 85 85 85 83 74 47 29 23 16 357 47 61 49 37 66 65 36 17 335 265 254 242
128 125 121 119 118 120 121 124 123 121 119 116 115 115 110 104 98 93 94 92 90 90 92 94 94 84 54 30 19 359 338 75 82 68 55 69 61 32 6 338 352 358 204
127 124 125 127 129 129 131 129 125 125 121 117 114 111 110 110 108 103 100 99 100 103 101 99 100 93 68 31 18 0 324 92 96 84 54 57 73 30 6 354 9 20 10
127 129 134 136 137 141 141 133 129 128 123 119 116 115 114 113 111 110 108 105 105 106 102 99 97 94 81 35 21 0 350 63 90 103 94 66 55 30 16 2 2 13 355
135 139 142 141 141 145 141 131 127 124 123 122 120 116 115 113 105 100 101 106 98 94 98 104 101 94 94 71 33 25 21 12 29 100 105 82 42 18 358 337 331 338 310
143 145 138 134 137 141 135 125 121 122 121 119 117 115 114 106 101 102 104 109 116 120 120 124 123 119 113 78 50 26 26 5 12 48 65 95 338 326 316 313 314 318 313
145 145 141 138 140 146 139 128 128 128 124 118 110 101 94 94 105 119 124 117 113 120 121 129 129 127 124 111 17 328 335 348 358 6 336 298 278 293 282 256 280 300 300
145 146 141 135 134 133 129 126 128 125 121 117 111 109 111 106 84 57 59 53 43 50 73 71 90 98 81 56 26 354 354 330 352 333 294 267 265 267 279 285 256 250 268
139 136 133 134 131 127 125 128 124 118 121 126 128 127 114 99 85 68 51 61 52 44 45 44 51 60 75 51 18 7 11 2 5 330 301 275 269 259 264 307 315 306 360
137 137 139 135 133 129 127 123 122 123 128 131 134 130 128 127 127 117 92 61 80 77 72 66 65 77 88 113 353 347 336 330 339 331 310 347 1 1 2 354 355 8 32